Lexington Weather

Lexington, Massachusetts, USA

54°F
12/10/2019 3:54pm 
  • Lexington Conditions: Light rain, Overcast
  • Temperature: 54.3°F / 12.4°CColder 0.9°F than last hour.
  • Dew Point: 52.7°FDecreased 0.2°Fsince last hour.
  • Relative Humidity: 94%Increased 2.0% since last hour.
  • Wind: Wind from SSW SSW 2 mph, 10-min avg: 4 mph, gust: 8 mph
  • Barometer: 29.68 inFalling 0.02  inHg/hr Falling Slowly
  • Visibility: 10 miles
  • Rain Today: 0.04 in
  •   

Regional Weather Roundup
for Boston / Norton, MA

        
000
ASUS41 KBOX 100110
RWRBOX

REGIONAL WEATHER ROUNDUP
NATIONAL WEATHER SERVICE BOSTON/NORTON MA
800 PM EST MON DEC 09 2019

NOTE:  "FAIR" INDICATES FEW OR NO CLOUDS BELOW 12,000 FEET WITH NO 
SIGNIFICANT WEATHER AND/OR OBSTRUCTIONS TO VISIBILITY.

MAZALL-100200-
EASTERN MASSACHUSETTS
  
CITY           SKY/WX    TMP DP  RH WIND       PRES   REMARKS
BOSTON         LGT RAIN  56  51  84 S13       29.79F                  
BEVERLY        LGT RAIN  53  51  93 S10       29.78F                  
LAWRENCE       LGT RAIN  52  50  93 S9G21     29.78F                  
BEDFORD        LGT RAIN  52  49  89 S15G22    29.77F                  
BLUE HILL        N/A     54  53  97 S26G36    29.79F                  
NORWOOD        LGT RAIN  58  53  84 S12G20    29.80F                  
MARSHFIELD     CLOUDY    57  57 100 S12G20    29.82F                  
PLYMOUTH       NOT AVBL                                               
TAUNTON        LGT RAIN  58  55  90 S10G20    29.82F                  
NEW BEDFORD    RAIN      57  57 100 S16       29.85F FOG              
$$

MAZALL-100200-
CAPE COD AND THE ISLANDS
  
CITY           SKY/WX    TMP DP  RH WIND       PRES   REMARKS
FALMOUTH       CLOUDY    55  55 100 SW20G30   29.88F FOG              
HYANNIS        RAIN      56  54  93 S17G26    29.88S FOG              
CHATHAM        LGT RAIN  54  53  97 SW13G30   29.91F FOG              
NANTUCKET      LGT RAIN  53  51  93 S22       29.91F                  
MARTHAS VNYRD  LGT RAIN  57  55  93 S23G35    29.88F FOG              
$$
 
MAZALL-100200-
CENTRAL AND WESTERN MASSACHUSETTS
  
CITY           SKY/WX    TMP DP  RH WIND       PRES   REMARKS
WORCESTER      LGT RAIN  49  48  97 SW16G25   29.77F FOG              
FITCHBURG      NOT AVBL                                               
ORANGE         LGT RAIN  50  47  89 S9        29.75F                  
SPRINGFIELD    LGT RAIN  46  46 100 S16       29.73F FOG              
WESTFIELD      LGT RAIN  47  46  97 S8        29.74F VSB 3/4          
NORTH ADAMS    LGT RAIN  52  46  80 S12G17    29.69F                  
PITTSFIELD     LGT RAIN  50  46  86 S14G23    29.68F                  
$$
 
RIZALL-100200-
RHODE ISLAND
  
CITY           SKY/WX    TMP DP  RH WIND       PRES   REMARKS
PROVIDENCE     RAIN      56  55  97 S13       29.83F                  
NEWPORT        LGT RAIN  56  54  93 S12       29.84F FOG              
BLOCK ISLAND   RAIN      54  54 100 S16       29.85F FOG              
SMITHFIELD     RAIN      53  53 100 VRB6      29.82F                  
WESTERLY       LGT RAIN  54  51  90 S8        29.84F FOG              
$$
 
CTZALL-100200-
CONNECTICUT
  
CITY           SKY/WX    TMP DP  RH WIND       PRES   REMARKS
BRADLEY INTL   LGT RAIN  48  47  96 S15       29.75F FOG              
HARTFORD       LGT RAIN  51  50  96 S8        29.77F                  
BRIDGEPORT     HVY RAIN  53  51  93 S15       29.80F FOG              
DANBURY        LGT RAIN  53  50  89 S9        29.77F FOG              
GROTON         LGT RAIN  52  52 100 S10       29.82F FOG              
NEW HAVEN      RAIN      54  52  93 VRB7      29.80F FOG              
CHESTER        LGT RAIN  54  54 100 S8        29.80F                  
MERIDEN        HVY RAIN  51  50  96 S9        29.78F FOG              
WILLIMANTIC    LGT RAIN  52  52 100 S6        29.81F                  
OXFORD         RAIN      51  51 100 S14       29.78F                  
$$

MEZ002-015-021-024-NHZ003-005-008-011-012-014-VTZ005-008-100200-
NORTHERN NEW ENGLAND
  
CITY           SKY/WX    TMP DP  RH WIND       PRES   REMARKS
PORTLAND ME    LGT RAIN  51  48  89 S14G22    29.75F VSB 1/2          
BANGOR ME      LGT RAIN  51  49  92 S20G35    29.78F                  
CONCORD NH     LGT RAIN  46  46 100 S8        29.74F FOG              
MANCHESTER NH  LGT RAIN  50  49  96 S10       29.74F FOG              
NASHUA NH      LGT RAIN  49  49 100 VRB3      29.76F FOG              
PORTSMOUTH NH  LGT RAIN  47  47  99 S10       29.75F VSB 1/2          
JAFFREY NH     LGT RAIN  49  47  93 S12G21    29.73F                  
KEENE NH       LGT RAIN  45  45 100 S5        29.72F FOG              
BURLINGTON VT  CLOUDY    48  44  86 S22G38    29.58F                  
MT. WASHINGTON LGT RAIN  34  34 100 SW41G60     N/A  VSB 0   WCI  18  
$$

NYZ052-076-100200-
EASTERN NEW YORK
  
CITY           SKY/WX    TMP DP  RH WIND       PRES   REMARKS
ALBANY         LGT RAIN  46  42  86 S17G25    29.67F                  
NEW YORK CITY  LGT RAIN  54  51  90 S8        29.78F FOG              
$$
 
ANZALL-100200-
MARINE OBSERVATIONS
  
STATION/POSITION TIME  TEMP    WIND        PRES    VSBY  WAVE
                       AIR SEA DIR/SP/G                  HT/PER
                 (UTC) (F)     (DEG/KT/KT) (MB)    (MI)  (FT/S)
BOSTON BUOY      0050   52 48  150/ 16/ 17 1008.6F         3/ 5
BUZZARDS BAY     0000   55     210/ 25/ 26 1011.7F
NANTUCKET SOUND  0030   51                   N/A
MASS BAY-STELLWA 0004   50 46  200/ 14/ 17 1008.4F  1 1/4  5/ 5
ISLE OF SHOALS   0000   49     170/ 24/ 26 1008.9F
S OF BLOCK IS    0100      52                N/A          13/ 9
$$

......................KEY.........................
  SKY/WX - SKY CONDITION/PRESENT WEATHER
  TMP    - TEMPERATURE IN FAHRENHEIT
  DWPT   - DEWPOINT IN FAHRENHEIT
  RH     - RELATIVE HUMIDITY IN PERCENT
  WIND   - DIRECTION AND SPEED IN MPH
  PRES   - MEAN SEA LEVEL PRESSURE IN INCHES OF HG
  WCI    - WIND CHILL INDEX
  VSB    - VISIBILITY IN MILES
  HX     - HEAT INDEX
  TC     - TEMPERATURE IN CELSIUS
  VRB    - VARIABLE WIND DIRECTION
  N/A    - NOT AVAILABLE
  
      

Other recent Regional Weather Roundups

Tue Dec 10, 3:10pm

Tue Dec 10, 3:01pm

Tue Dec 10, 2:10pm

Tue Dec 10, 2:01pm

Tue Dec 10, 1:10pm

Tue Dec 10, 1:00pm

Tue Dec 10, 12:10pm

Tue Dec 10, 12:00pm

Tue Dec 10, 11:10am

Tue Dec 10, 11:00am

Tue Dec 10, 10:10am

Tue Dec 10, 10:00am

Tue Dec 10, 9:10am

Tue Dec 10, 9:01am

Tue Dec 10, 8:10am

Tue Dec 10, 8:00am

Tue Dec 10, 7:10am

Tue Dec 10, 7:00am

Tue Dec 10, 6:10am

Tue Dec 10, 6:00am

Tue Dec 10, 5:10am

Tue Dec 10, 5:00am

Tue Dec 10, 4:10am

Tue Dec 10, 4:00am

Tue Dec 10, 3:10am

Tue Dec 10, 3:00am

Tue Dec 10, 2:10am

Tue Dec 10, 2:01am

Tue Dec 10, 1:10am

Tue Dec 10, 1:00am

Tue Dec 10, 12:10am

Tue Dec 10, 12:01am

Mon Dec 9, 11:10pm

Mon Dec 9, 11:01pm

Mon Dec 9, 10:10pm

Mon Dec 9, 10:00pm

Mon Dec 9, 9:10pm

Mon Dec 9, 9:01pm

Mon Dec 9, 8:01pm

Mon Dec 9, 7:10pm

Mon Dec 9, 7:00pm

Mon Dec 9, 6:10pm

Mon Dec 9, 6:00pm

Mon Dec 9, 5:10pm

Mon Dec 9, 5:01pm

Mon Dec 9, 4:10pm

Mon Dec 9, 4:01pm

Mon Dec 9, 3:10pm

Mon Dec 9, 3:01pm

Mon Dec 9, 2:10pm

Mon Dec 9, 2:00pm

Mon Dec 9, 1:10pm

Mon Dec 9, 1:00pm

Mon Dec 9, 12:10pm

Mon Dec 9, 12:00pm

Mon Dec 9, 11:10am

Mon Dec 9, 11:00am

Mon Dec 9, 10:10am

Mon Dec 9, 10:00am

Mon Dec 9, 9:10am

Mon Dec 9, 9:00am

Mon Dec 9, 8:10am

Mon Dec 9, 8:00am

Mon Dec 9, 7:10am

Mon Dec 9, 7:00am

Mon Dec 9, 6:10am

Mon Dec 9, 6:00am

Mon Dec 9, 5:10am

Mon Dec 9, 5:00am

Mon Dec 9, 4:10am

Mon Dec 9, 4:00am

Mon Dec 9, 3:10am

Mon Dec 9, 3:00am

Mon Dec 9, 2:10am

Mon Dec 9, 2:00am

Mon Dec 9, 1:10am

Mon Dec 9, 1:00am

Mon Dec 9, 12:10am

Mon Dec 9, 12:00am

Sun Dec 8, 11:10pm

Sun Dec 8, 11:00pm

Sun Dec 8, 10:10pm

Sun Dec 8, 10:01pm

Sun Dec 8, 9:10pm

Sun Dec 8, 9:01pm

Sun Dec 8, 8:10pm

Sun Dec 8, 8:00pm

Sun Dec 8, 7:10pm

Sun Dec 8, 7:00pm

Sun Dec 8, 6:10pm

Sun Dec 8, 6:01pm

Sun Dec 8, 5:10pm

Sun Dec 8, 5:00pm

Sun Dec 8, 4:10pm

Sun Dec 8, 4:01pm

Sun Dec 8, 3:10pm

Sun Dec 8, 3:01pm

Sun Dec 8, 2:10pm

Sun Dec 8, 2:01pm

Sun Dec 8, 1:10pm

Sun Dec 8, 1:00pm

Sun Dec 8, 12:10pm

Sun Dec 8, 12:01pm

Sun Dec 8, 11:10am

Sun Dec 8, 11:00am

Sun Dec 8, 10:10am

Sun Dec 8, 10:01am

Sun Dec 8, 9:10am

Sun Dec 8, 9:00am

Sun Dec 8, 8:10am

Sun Dec 8, 8:00am

Sun Dec 8, 7:10am

Sun Dec 8, 7:00am

Sun Dec 8, 6:10am

Sun Dec 8, 6:00am

Sun Dec 8, 5:10am

Sun Dec 8, 5:00am

Sun Dec 8, 4:10am

Sun Dec 8, 4:00am

Sun Dec 8, 3:10am

Sun Dec 8, 3:00am

Sun Dec 8, 2:10am

Sun Dec 8, 2:00am

Sun Dec 8, 1:10am

Sun Dec 8, 1:00am

Sun Dec 8, 12:10am

Sun Dec 8, 12:01am

Sat Dec 7, 11:10pm

Sat Dec 7, 11:00pm

Sat Dec 7, 10:10pm

Sat Dec 7, 10:00pm

Sat Dec 7, 9:10pm

Sat Dec 7, 9:00pm

Sat Dec 7, 8:10pm

Sat Dec 7, 8:00pm

Sat Dec 7, 7:10pm

Sat Dec 7, 7:00pm

Sat Dec 7, 6:10pm

Sat Dec 7, 6:00pm

Sat Dec 7, 5:10pm

Sat Dec 7, 5:00pm

Sat Dec 7, 4:10pm

Sat Dec 7, 4:00pm

Meta data:

ID: fa9e33c0-b52b-4e42-9ce5-2feb1eb85e9b
Link: https://api.weather.gov/products/fa9e33c0-b52b-4e42-9ce5-2feb1eb85e9b